Weather in Anau

Turkmenistan     37°54′02″N   58°30′17″E
temp.,
°C
wind,
m/s
gust,
m/s
humid.,
%
clouds,
%
prec.,
mm/h
press.,
hPa
HPBL,
m
9 march, tue
tue923:00+12e8134716 0.0 1015552
02:00+11e61049100 0.0 1012341
05:00+10e3552100 0.0 1010150
08:00+10ene2251100 0.0 100970
11:00+13wnw564198 0.0 1010388
14:00+19nw792684 0.0 1009798
17:00+18nw573153 0.0 10111256
20:00+15nw473730 0.0 1013653
10 march, wed
wed1023:00+13nw354516 0.0 1015710
02:00+11wnw4553100 0.0 1015614
05:00+10nw4563100 0.0 1017497
08:00+8nnw4552100 0.0 1020565
11:00+9nnw3351100 0.0 1021829
14:00+11nnw324595 0.0 10191089
17:00+12n224393 0.0 10201390
20:00+11ne224675 0.0 1021730
11 march, thu
thu1123:00+10ese235239 0.0 1023405
02:00+10ese23600 0.0 1022220
05:00+9e34630 0.0 1020206
08:00+8ese58610 0.0 1020267
11:00+14ese810450 0.0 1018538
14:00+18ese89310 0.0 1013703
17:00+21e782321 0.0 1010651
20:00+18se462889 0.0 1008118
12 march, fri
fri1223:00+17ese343394 0.0 100754
02:00+16w2234100 0.0 100524
05:00+14nw2342100 0.0 100358
08:00+13wnw5846100 0.0 1003368
11:00+13nw91155100 0.0 1006668
14:00+14nw554771 0.0 1007938
17:00+13nw565585 0.1 1006687
20:00+11wnw5653100 1.1 1008695
13 march, sat
sat1323:00+9w4570100 3.4 1009575
02:00+7nw5577100 4.8 1008570
05:00+4nw5791100 17.1 1007464
08:00+3wnw71092100 7.3 1009508
11:00+2nw101491100 9.7 1014662
14:00+3nw111469100 0.1 1017898
17:00+3nw121662100 0.1 10181054
20:00+1nw162169100 0.0 1022918